SL-16 R/B (22803 NORAD) Tracking and Keplerian Element Data

This shows tracking and keplerian element data for the satellite.

Feedback or suggestion? Click here.




ElementValue
Catalog22803
NameSL-16 R/B
Epoch Orbit56807
Epoch Day12.93012895
Epoch Year2024
RAAN229.956
Inclination70.9883
Eccentricity0.0018416
Argument of Perigee322.7954
Mean Anonmoly37.1892
Mean Motion14.16983667
Decay Rate2.2E-06
L11 22803U 93059B 24012.93012895 .00000220 00000+0 13312-3 0 9993
L22 22803 70.9883 229.9560 0018416 322.7954 37.1892 14.16983667568074



Live tracking and technical data element details for SL-16 R/B (NORAD 22803). SL-16 R/B can be tracked NOW for your location showing map with azimuth and elevation plus other details from your city location.







IsCatalogInMostPopularTable: catalog: 22803, numindb: 332
Update: records affected: 1



GetName: 22803 SL-16 R/B

Hit Count: updated at: Mon, 15 Apr 2024 00:04:28 GMT